Regional Weather Roundup
Issued by NWS Upton, NY

Current Version | Previous Version | Text Only | Print | Product List | Glossary Off
Versions: 1 2 3 4 5 6 7 8 9 10 11 12 13 14 15 16 17 18 19 20 21 22 23 24 25 26 27 28 29 30 31 32 33 34 35 36 37 38 39 40 41 42 43 44 45 46 47 48 49 50
057 ASUS41 KOKX 291204 RWROKX REGIONAL WEATHER ROUNDUP NATIONAL WEATHER SERVICE NEW YORK NY 800 AM EDT FRI APR 29 2016 NOTE: "FAIR" INDICATES FEW OR NO CLOUDS BELOW 12,000 FEET WITH NO SIGNIFICANT WEATHER AND/OR OBSTRUCTIONS TO VISIBILITY. NYZ071-072-176-178-NJZ106-104-291300- NEW YORK CITY METRO AREA CITY SKY/WX TMP DP RH WIND PRES REMARKS CENTRAL PARK CLOUDY 49 31 49 NE9 30.13R LAGUARDIA APRT CLOUDY 50 34 54 E10 30.10R KENNEDY INTL CLOUDY 50 37 61 NE12 30.12R NEWARK/LIBERTY CLOUDY 52 29 41 NE7 30.10R BRNX BOT. GARD N/A 48 37 66 NE7 30.10F TETERBORO CLOUDY 50 34 54 E7 30.10R $$ NYZ177-179-078>081-291300- LONG ISLAND NEW YORK CITY SKY/WX TMP DP RH WIND PRES REMARKS FARMINGDALE CLOUDY 48 36 63 E8 30.11R ISLIP PTSUNNY 49 35 58 E13 30.11R SHIRLEY PTSUNNY 50 33 52 VRB3 30.12R RIVERHEAD N/A 48 34 57 E5 30.12R WESTHAMPTON CLOUDY 46 32 58 E12G22 30.13R EAST HAMPTON CLOUDY 46 34 62 E13G20 30.12S MONTAUK POINT N/A 47 35 63 E9G21 30.14S $$ NYZ052-065-067-291300- HUDSON VALLEY CITY SKY/WX TMP DP RH WIND PRES REMARKS WHITE PLAINS PTSUNNY 46 36 68 E6 30.10R NEWBURGH PTSUNNY 45 37 76 E6 30.12R MONTGOMERY CLOUDY 45 31 58 N8 30.11R POUGHKEEPSIE PTSUNNY 48 29 47 N5 30.12R ALBANY CLOUDY 41 22 46 N8 30.14R $$ NJZ001-105-106-008-010-013-015-019>022-104-291300- NEW JERSEY CITY SKY/WX TMP DP RH WIND PRES REMARKS NEWARK/LIBERTY CLOUDY 52 29 41 NE7 30.10R TETERBORO CLOUDY 50 34 54 E7 30.10R CALDWELL CLOUDY 49 31 49 E7 30.11R MORRISTOWN CLOUDY 50 34 53 E6 30.11R SOMERVILLE CLOUDY 49 41 74 VRB3 30.08R SUSSEX LGT RAIN 47 37 68 NE5 30.10R ANDOVER N/A 47 36 65 CALM 30.09R TRENTON CLOUDY 47 42 83 NE5 30.08R MILLVILLE CLOUDY 47 44 90 NE9 30.05R ATLANTIC CITY CLOUDY 48 45 89 NE10 30.06R WRIGHTSTOWN CLOUDY 47 43 88 NE9 30.05R TOMS RIVER CLOUDY 48 41 76 NE10 30.08R BELMAR CLOUDY 48 41 76 E10 30.09R $$ PAZ047>061-062-071-291300- EASTERN PENNSYLVANIA CITY SKY/WX TMP DP RH WIND PRES REMARKS PHILADELPHIA CLOUDY 48 41 76 NE7 30.07R ALLENTOWN CLOUDY 48 40 73 E5 30.08S SCRANTON CLOUDY 48 39 71 VRB3 30.06R $$ CTZ002-004>006-009-010-012-RIZ004-006-007-MAZ004-011-015-291300- SOUTHERN NEW ENGLAND IN CT CITY SKY/WX TMP DP RH WIND PRES REMARKS BRADLEY INTL CLOUDY 46 32 58 SE5 30.14R HARTFORD CLOUDY 47 36 65 SE3 30.15R DANBURY CLOUDY 46 32 58 E7 30.13R WTRBRY/OXFORD MOSUNNY 45 34 65 E5 30.14R BRIDGEPORT CLOUDY 49 37 63 E15 30.13R MERIDEN CLOUDY 48 34 58 E5 30.14R NEW HAVEN CLOUDY 49 36 61 E9 30.14R CHESTER FAIR 43 36 75 E3 30.13S GROTON CLOUDY 46 43 89 E9 30.14R WILLIMANTIC CLOUDY 47 36 65 E5 30.15R IN RI CITY SKY/WX TMP DP RH WIND PRES REMARKS PROVIDENCE CLOUDY 46 35 65 SE9 30.18R BLOCK ISLAND CLOUDY 45 34 65 E16 30.15S WESTERLY CLOUDY 46 37 71 E8 30.15R IN MA CITY SKY/WX TMP DP RH WIND PRES REMARKS BOSTON CLOUDY 46 36 68 SE12 30.19R WORCESTER CLOUDY 40 33 76 NE9 30.15R WCI 34 WESTFIELD CLOUDY 45 26 47 N7 30.15R PROVINCETOWN MOSUNNY 45 33 63 E8 30.20R NANTUCKET LGT RAIN 45 34 65 E13 30.17R $$ ANZ330-335-338-340-345-350-353-355-291300- COASTAL MARINE OBSERVATIONS STATION/POSITION TIME SKY/WX TEMP WIND PRES VSBY WAVE AIR SEA DIR/SP/G HT/PER (UTC) (F) (DEG/KT/KT) (MB) (MI) (FT/S) NY HARB ENTRANCE 1050 49 51 70/ 16/ 17 1018.1 3/ 6 20S FIRE ISLAND 1050 47 49 70/ 19/ 21 1017.7 3/ 5 GREAT SOUTH BAY 1100 49 57 100/ 16/ 21 N/A 23 SSW MONTAUK P 1150 46 46 90/ 21/ 25 1018.9 4/ 5 15 E BARNEGAT LI 1122 51 N/A 4/ 6 HUDSON CANYON 1050 49 50 1016.3 4/ 6 KINGS POINT 1100 48 53 1018.9 EXECUTION ROCKS NOT AVBL CENTRAL LI SOUND 1100 47 90/ 16/ 19 N/A 2/ 4 EASTERN LI SOUND 1100 45 47 80/ 10/ 14 N/A ROBBINS REEF 1106 49 100/ 12/ 15 1018.1 $$ >>>>>>>>>>>>>>>>>>>>>>>>>>>> KEY <<<<<<<<<<<<<<<<<<<<<<<<<<< > < > SKY/WX - SKY CONDITION/PRESENT WEATHER < > TMP - TEMPERATURE IN FAHRENHEIT < > DP - DEWPOINT IN FAHRENHEIT < > RH - RELATIVE HUMIDITY IN PERCENT < > WIND - DIRECTION AND SPEED IN MPH < > PRES - MEAN SEA LEVEL PRESSURE IN INCHES OF HG < > WCI - WIND CHILL INDEX < > VSB - VISIBILITY IN MILES < > HX - HEAT INDEX < > TC - TEMPERATURE IN CELSIUS < > VRB - VARIABLE WIND DIRECTION < > < >>>>>>>>>>>>>>>>>>>>>>>>>>>> KEY <<<<<<<<<<<<<<<<<<<<<<<<<<<

USA.gov is the U.S. government's official web portal to all federal, state and local government web resources and services.